Weather History for KMWM - September, 2013

Change the Weather History Date:

Tuesday, September 10, 2013

  Actual Average Record
Temperature  
Mean Temperature 69 °F -  
Max Temperature 78 °F 77 °F 91 °F (1978)
Min Temperature 60 °F 51 °F 34 °F (1948)
Cooling Degree Days 4    
Growing Degree Days 19 (Base 50)    
Moisture  
Dew Point 64 °F    
Average Humidity 78    
Maximum Humidity 100    
Minimum Humidity 54    
Precipitation  
Precipitation 0.00 in - - ()
Sea Level Pressure  
Sea Level Pressure 29.96 in    
Wind  
Wind Speed 3 mph (WSW)    
Max Wind Speed 8 mph    
Max Gust Speed -    
Visibility 10 miles    
Events Rain , Thunderstorm    
Averages and records for this station are not official NWS values.
T = Trace of Precipitation, MM = Missing Value Source: NWS Daily Summary

Daily Weather History Graph

Daily Weather History Graph

Search for Another Location

Airport or City:

Trip Planner

Search our weather history database for the weather conditions in past years. The results will help you decide how hot, cold, wet, or windy it might be!

Date:

Astronomy

Sep. 10, 2013 Rise Set
Actual Time 6:54 AM CDT 7:39 PM CDT
Civil Twilight 6:25 AM CDT 8:08 PM CDT
Nautical Twilight 5:50 AM CDT 8:43 PM CDT
Astronomical Twilight 5:14 AM CDT 9:18 PM CDT
Moon 12:33 PM CDT (9/10) 10:30 PM CDT (9/10)
Length of Visible Light 13h 43m
Length of Day
12h 45m
Waxing Crescent, 28% of the Moon is Illuminated
Sep 10
Waxing Crescent
Sep 12
First Quarter
Sep 19
Full
Sep 26
Last Quarter
Oct 4
New

Hourly Weather History & Observations

Time (CDT) Temp. Dew Point Humidity Pressure Visibility Wind Dir Wind Speed Gust Speed Precip Events Conditions
12:12 AM 71.6 °F 64.4 °F 78% 29.87 in 10.0 mi NW 6.9 mph - N/A Thunderstorm Clear
12:33 AM 71.6 °F 64.4 °F 78% 29.88 in 10.0 mi WNW 4.6 mph - N/A   Scattered Clouds
12:53 AM 69.8 °F 64.4 °F 83% 29.85 in 10.0 mi East 3.5 mph - N/A   Scattered Clouds
1:12 AM 69.8 °F 64.4 °F 83% 29.85 in 10.0 mi SE 3.5 mph - N/A   Clear
1:33 AM 69.8 °F 64.4 °F 83% 29.87 in 10.0 mi Calm Calm - N/A   Clear
1:53 AM 66.2 °F 62.6 °F 88% 29.88 in 10.0 mi Calm Calm - N/A   Clear
2:12 AM 66.2 °F 62.6 °F 88% 29.89 in 10.0 mi WNW 4.6 mph - N/A   Clear
2:33 AM 64.4 °F 62.6 °F 94% 29.88 in 10.0 mi Calm Calm - N/A   Clear
2:53 AM 64.4 °F 62.6 °F 94% 29.90 in 10.0 mi Calm Calm - N/A   Clear
3:12 AM 66.2 °F 62.6 °F 88% 29.90 in 10.0 mi Calm Calm - N/A   Scattered Clouds
3:32 AM 64.4 °F 62.6 °F 94% 29.90 in 10.0 mi Calm Calm - N/A   Clear
3:53 AM 64.4 °F 62.6 °F 94% 29.90 in 10.0 mi Calm Calm - N/A   Clear
4:12 AM 64.4 °F 62.6 °F 94% 29.90 in 10.0 mi Calm Calm - N/A   Clear
4:32 AM 62.6 °F 60.8 °F 94% 29.89 in 7.0 mi Calm Calm - N/A   Clear
4:52 AM 62.6 °F 60.8 °F 94% 29.90 in 0.8 mi Calm Calm - N/A   Mist
5:12 AM 62.6 °F 60.8 °F 94% 29.91 in 10.0 mi Calm Calm - N/A   Clear
5:32 AM 60.8 °F 59.0 °F 94% 29.92 in 10.0 mi Calm Calm - N/A   Clear
5:52 AM 62.6 °F 62.6 °F 100% 29.94 in 10.0 mi West 6.9 mph - N/A   Mostly Cloudy
6:13 AM 64.4 °F 62.6 °F 94% 29.93 in 10.0 mi West 3.5 mph - N/A   Overcast
6:32 AM 66.2 °F 64.4 °F 94% 29.93 in 10.0 mi Calm Calm - N/A   Overcast
6:52 AM 66.2 °F 64.4 °F 94% 29.92 in 10.0 mi Calm Calm - N/A   Mostly Cloudy
7:13 AM 64.4 °F 62.6 °F 94% 29.92 in 10.0 mi Calm Calm - N/A   Scattered Clouds
7:32 AM 64.4 °F 62.6 °F 94% 29.93 in 10.0 mi Calm Calm - N/A   Clear
7:52 AM 66.2 °F 64.4 °F 94% 29.93 in 10.0 mi Calm Calm - N/A   Clear
8:13 AM 69.8 °F 64.4 °F 83% 29.94 in 10.0 mi Calm Calm - N/A   Clear
8:32 AM 69.8 °F 64.4 °F 83% 29.94 in 10.0 mi Calm Calm - N/A   Scattered Clouds
8:52 AM 69.8 °F 64.4 °F 83% 29.94 in 10.0 mi Calm Calm - N/A   Scattered Clouds
9:12 AM 73.4 °F 66.2 °F 78% 29.94 in 10.0 mi Calm Calm - N/A   Scattered Clouds
9:33 AM 73.4 °F 62.6 °F 69% 29.95 in 10.0 mi Calm Calm - N/A   Mostly Cloudy
9:52 AM 73.4 °F 62.6 °F 69% 29.95 in 10.0 mi South 3.5 mph - N/A   Scattered Clouds
10:12 AM 73.4 °F 62.6 °F 69% 29.97 in 10.0 mi WSW 3.5 mph - N/A   Scattered Clouds
10:32 AM 73.4 °F 64.4 °F 73% 29.97 in 10.0 mi West 3.5 mph - N/A   Mostly Cloudy
10:52 AM 73.4 °F 64.4 °F 73% 29.98 in 10.0 mi West 4.6 mph - N/A   Scattered Clouds
11:12 AM 75.2 °F 60.8 °F 61% 29.98 in 10.0 mi WSW 4.6 mph - N/A   Clear
11:32 AM 75.2 °F 60.8 °F 61% 29.98 in 10.0 mi WSW 3.5 mph - N/A   Clear
11:52 AM 77.0 °F 60.8 °F 57% 29.98 in 10.0 mi WSW 4.6 mph - N/A   Clear
12:12 PM 77.0 °F 60.8 °F 57% 29.98 in 10.0 mi West 5.8 mph - N/A   Clear
12:33 PM 77.0 °F 60.8 °F 57% 29.98 in 10.0 mi West 5.8 mph - N/A   Clear
12:52 PM 78.8 °F 60.8 °F 54% 29.98 in 10.0 mi West 6.9 mph - N/A   Clear
1:12 PM 78.8 °F 60.8 °F 54% 29.98 in 10.0 mi West 8.1 mph - N/A   Clear
1:33 PM 78.8 °F 62.6 °F 57% 29.99 in 10.0 mi WNW 8.1 mph - N/A   Clear
1:52 PM 78.8 °F 62.6 °F 57% 29.99 in 10.0 mi West 8.1 mph - N/A   Clear
2:12 PM 77.0 °F 64.4 °F 65% 29.99 in 10.0 mi West 6.9 mph - N/A   Scattered Clouds
2:33 PM 77.0 °F 62.6 °F 61% 29.99 in 10.0 mi West 5.8 mph - N/A   Scattered Clouds
2:52 PM 75.2 °F 62.6 °F 65% 29.98 in 10.0 mi WSW 4.6 mph - N/A   Mostly Cloudy
3:12 PM 77.0 °F 62.6 °F 61% 29.99 in 10.0 mi WSW 6.9 mph - N/A   Mostly Cloudy
3:33 PM 78.8 °F 62.6 °F 57% 29.98 in 10.0 mi WSW 5.8 mph - N/A   Mostly Cloudy
3:52 PM 78.8 °F 64.4 °F 61% 29.98 in 10.0 mi SW 5.8 mph - N/A   Scattered Clouds
4:12 PM 77.0 °F 64.4 °F 65% 29.99 in 10.0 mi WSW 5.8 mph - N/A   Scattered Clouds
4:33 PM 77.0 °F 64.4 °F 65% 29.99 in 10.0 mi SW 5.8 mph - N/A   Scattered Clouds
4:52 PM 77.0 °F 64.4 °F 65% 29.98 in 10.0 mi SSW 5.8 mph - N/A   Clear
5:12 PM 77.0 °F 66.2 °F 69% 29.98 in 10.0 mi SW 4.6 mph - N/A   Clear
5:33 PM 77.0 °F 66.2 °F 69% 29.99 in 10.0 mi SW 5.8 mph - N/A   Clear
5:52 PM 77.0 °F 66.2 °F 69% 29.99 in 10.0 mi SW 6.9 mph - N/A   Scattered Clouds
6:12 PM 75.2 °F 66.2 °F 73% 29.99 in 10.0 mi SW 6.9 mph - N/A   Clear
6:33 PM 75.2 °F 66.2 °F 73% 29.99 in 10.0 mi SW 5.8 mph - N/A Rain Light Rain
6:52 PM 73.4 °F 66.2 °F 78% 29.99 in 10.0 mi SSW 5.8 mph - N/A   Clear
7:12 PM 73.4 °F 66.2 °F 78% 29.99 in 10.0 mi SW 5.8 mph - N/A   Clear
7:32 PM 73.4 °F 66.2 °F 78% 30.00 in 10.0 mi SSW 5.8 mph - N/A   Clear
7:52 PM 73.4 °F 66.2 °F 78% 30.00 in 10.0 mi SW 6.9 mph - N/A   Clear
8:13 PM 73.4 °F 66.2 °F 78% 30.00 in 10.0 mi SW 3.5 mph - N/A   Clear
8:32 PM 71.6 °F 66.2 °F 83% 30.00 in 10.0 mi WSW 3.5 mph - N/A   Clear
8:52 PM 71.6 °F 66.2 °F 83% 30.01 in 10.0 mi WSW 5.8 mph - N/A   Clear
9:13 PM 71.6 °F 66.2 °F 83% 30.02 in 10.0 mi SW 3.5 mph - N/A   Clear
9:32 PM 71.6 °F 66.2 °F 83% 30.02 in 10.0 mi WSW 4.6 mph - N/A   Clear
9:52 PM 69.8 °F 66.2 °F 88% 30.03 in 10.0 mi WSW 4.6 mph - N/A Rain Rain
10:13 PM 69.8 °F 64.4 °F 83% 30.03 in 10.0 mi SW 3.5 mph - N/A   Clear
10:32 PM 69.8 °F 64.4 °F 83% 30.04 in 10.0 mi Calm Calm - N/A   Clear
10:52 PM 69.8 °F 64.4 °F 83% 30.04 in 10.0 mi West 4.6 mph - N/A   Clear
11:13 PM 69.8 °F 64.4 °F 83% 30.03 in 10.0 mi Calm Calm - N/A   Clear
11:32 PM 68.0 °F 64.4 °F 88% 30.04 in 10.0 mi Calm Calm - N/A Rain Light Rain
11:52 PM 69.8 °F 64.4 °F 83% 30.04 in 10.0 mi Calm Calm - N/A   Scattered Clouds